Regional Weather Roundup
Issued by NWS

Home | Current Version | Previous Version | Graphics & Text | Print | Product List | Glossary On
Versions: 1 2 3 4 5 6 7 8 9 10 11 12 13 14 15 16 17 18 19 20 21 22 23 24 25 26 27 28 29 30 31 32 33 34 35 36 37 38 39 40 41 42 43 44 45 46 47 48 49
000
ASUS45 KCYS 041810
RWRWY

WYOMING REGIONAL WEATHER ROUNDUP
NATIONAL WEATHER SERVICE CHEYENNE WY
1100 AM MST WED MAR 04 2015

NOTE:  "FAIR" INDICATES FEW OR NO CLOUDS BELOW 12,000 FEET
WITH NO SIGNIFICANT WEATHER AND/OR OBSTRUCTIONS TO VISIBILITY.

WYZ001-041900-
YELLOWSTONE NATIONAL PARK

CITY           SKY/WX    TMP DP  RH WIND       PRES   REMARKS
LK YELLOWSTONE   N/A      0 -10  63 E3        30.05S
6HR MIN TEMP: -23; 6HR MAX TEMP:   1;

W YELLOWSTONE  NOT AVBL

$$
WYZ002>013-054>058-071-098>099-041900-
NORTHERN WYOMING

CITY           SKY/WX    TMP DP  RH WIND       PRES   REMARKS
JACKSON        SUNNY      5   0  78 VRB6      30.12S WCI  -6
CODY           FAIR      12   3  67 CALM      30.11F
GREYBULL       FAIR      14   2  58 SE6       30.22F WCI   5
6HR MIN TEMP:  -2; 6HR MAX TEMP:  14;

WORLAND        FAIR      14   2  58 CALM      30.20F
6HR MIN TEMP:  -2; 6HR MAX TEMP:  14;

SHERIDAN       FAIR      12   1  61 W5        30.19F WCI   4
6HR MIN TEMP:   2; 6HR MAX TEMP:  13; 6HR PCP:  0.01;

BUFFALO        FAIR       9   2  73 CALM      30.12S
6HR MIN TEMP:   1; 6HR MAX TEMP:  10;

GILLETTE       FAIR      10  -2  58 NW15      30.16R WCI  -7
6HR MIN TEMP:  -3; 6HR MAX TEMP:  11;

HULETT         FAIR      10  -4  52 W10G21    30.17R WCI  -3
NEWCASTLE      FAIR      14  -6  41 NW25G31   30.17S WCI  -5

$$
WYZ014>020-022>026-101>103-041900-
CENTRAL WYOMING

CITY           SKY/WX    TMP DP  RH WIND       PRES   REMARKS
BIG PINEY      FAIR      19   2  47 NE9       30.06S WCI   8
6HR MIN TEMP:  -1; 6HR MAX TEMP:  19;

PINEDALE       FAIR      14   1  57 NW16      30.06S WCI  -2
DUBOIS         FAIR      14  -4  44 NW16      29.99S WCI  -2
LANDER         FAIR       2  -5  72 CALM      30.12F
6HR MIN TEMP:  -7; 6HR MAX TEMP:   2;

RIVERTON       FAIR       5   0  79 NW5       30.14S WCI  -4
6HR MIN TEMP:  -9; 6HR MAX TEMP:   6;

CASPER         FAIR      10   2  69 SW20      30.10F WCI  -9
6HR MIN TEMP:  -7; 6HR MAX TEMP:  10;

DOUGLAS        FAIR       5  -1  76 CALM      30.15S
6HR MIN TEMP: -11; 6HR MAX TEMP:   6;


$$
WYZ021-027>030-104>119-041900-
SOUTHERN WYOMING

CITY           SKY/WX    TMP DP  RH WIND       PRES   REMARKS
EVANSTON       FAIR      22  12  65 SW13      30.08R WCI  10
6HR MIN TEMP:   9; 6HR MAX TEMP:  22;

FORT BRIDGER   FAIR      23  14  68 W14       30.10R WCI  11
ROCK SPRINGS   NOT AVBL
DIXON          CLOUDY    16   8  70 W6        30.10S HAZE    WCI   7
RAWLINS        FAIR       3  -3  76 CALM      30.07R
6HR MIN TEMP: -21; 6HR MAX TEMP:   3;

SARATOGA       FAIR       5   0  78 W3        30.05R
LARAMIE        FAIR       9  -2  61 N6        29.99S WCI  -1
6HR MIN TEMP: -10; 6HR MAX TEMP:   9;

CHEYENNE       FAIR      13   2  61 VRB6      30.06S WCI   4
6HR MIN TEMP:   1; 6HR MAX TEMP:  14; 6HR PCP: TRACE;

TORRINGTON     FAIR      18   2  49 N5        30.18S WCI  11
6HR MIN TEMP:   4; 6HR MAX TEMP:  18;

PINE BLUFFS    CLOUDY    19   0  42 W9        30.13S WCI   9

$$


USA.gov is the U.S. government's official web portal to all federal, state and local government web resources and services.